Total_Precipitation_Accumulation
0.00 0.00 0.00 0.00 0.00 0.00 0.00 0.00 0.00 0.00 0.00 0.01 0.02 0.04 0.05 0.05 0.06 0.10 0.18 0.28 0.39 0.43 0.59 0.91 1.13 1.47 1.77 1.66 1.62 1.46 1.35 1.37 1.36 1.34 1.34 1.47 1.51 1.60 1.83 2.06 2.24 2.39 2.39 2.27
0.00 0.00 0.00 0.00 0.00 0.00 0.00 0.00 0.01 0.01 0.02 0.02 0.03 0.07 0.09 0.09 0.11 0.19 0.34 0.45 0.63 0.76 0.79 1.00 1.28 1.58 1.81 1.80 1.73 1.69 1.72 1.73 1.82 2.04 2.34 2.61 2.81 2.97 3.10 3.29 3.36 3.29 3.12 2.97
0.00 0.00 0.00 0.00 0.00 0.00 0.00 0.00 0.01 0.03 0.05 0.07 0.07 0.14 0.16 0.14 0.14 0.20 0.38 0.48 0.60 0.80 0.93 0.92 1.00 1.18 1.48 1.66 1.77 1.82 2.03 2.26 2.49 2.92 3.38 3.67 4.01 4.20 4.16 4.02 3.88 3.65 3.45 3.23
0.00 0.00 0.00 0.00 0.00 0.00 0.00 0.00 0.01 0.03 0.05 0.11 0.10 0.20 0.26 0.21 0.21 0.21 0.26 0.32 0.42 0.49 0.62 0.77 0.87 1.00 1.22 1.43 1.63 1.82 2.08 2.53 3.08 3.73 4.30 4.66 4.81 4.82 4.75 4.53 4.17 3.76 3.44 3.13
0.00 0.00 0.00 0.00 0.00 0.00 0.00 0.00 0.00 0.02 0.03 0.08 0.09 0.23 0.37 0.32 0.27 0.27 0.28 0.28 0.31 0.38 0.43 0.57 0.69 0.85 1.06 1.26 1.53 1.86 2.25 2.82 3.38 3.94 4.41 4.72 4.80 4.70 4.48 4.13 3.70 3.27 2.85 2.51
0.00 0.00 0.00 0.00 0.00 0.00 0.00 0.00 0.01 0.02 0.03 0.08 0.10 0.20 0.44 0.54 0.46 0.40 0.35 0.33 0.36 0.41 0.49 0.54 0.57 0.68 0.86 1.11 1.43 1.76 2.13 2.63 3.06 3.40 3.82 4.02 4.12 4.02 3.72 3.29 2.78 2.36 2.05 1.77
0.01 0.00 0.00 0.00 0.00 0.00 0.00 0.00 0.01 0.01 0.03 0.08 0.11 0.26 0.51 0.72 0.62 0.52 0.42 0.38 0.38 0.42 0.46 0.51 0.55 0.61 0.74 0.96 1.26 1.48 1.73 2.09 2.37 2.67 2.98 3.11 3.05 2.90 2.69 2.40 2.07 1.76 1.48 1.24
0.05 0.02 0.00 0.00 0.00 0.00 0.00 0.00 0.00 0.01 0.03 0.09 0.19 0.39 0.58 0.69 0.59 0.45 0.36 0.31 0.32 0.34 0.38 0.48 0.59 0.64 0.75 0.86 1.02 1.19 1.30 1.46 1.59 1.70 1.85 1.87 1.81 1.70 1.62 1.48 1.29 1.10 0.90 0.71
0.10 0.05 0.01 0.00 0.00 0.00 0.00 0.00 0.01 0.01 0.02 0.11 0.31 0.52 0.73 0.73 0.61 0.43 0.35 0.29 0.31 0.33 0.34 0.41 0.52 0.61 0.67 0.71 0.74 0.73 0.74 0.79 0.82 0.83 0.92 0.98 0.97 0.95 0.89 0.80 0.69 0.60 0.53 0.45
0.09 0.07 0.02 0.01 0.00 0.00 0.00 0.00 0.01 0.02 0.05 0.14 0.31 0.50 0.75 0.98 0.90 0.71 0.55 0.41 0.37 0.36 0.39 0.44 0.47 0.48 0.48 0.48 0.47 0.43 0.44 0.43 0.41 0.41 0.43 0.46 0.50 0.49 0.47 0.46 0.44 0.40 0.36 0.31
0.07 0.07 0.04 0.02 0.02 0.01 0.01 0.01 0.01 0.04 0.07 0.15 0.34 0.64 0.81 1.02 1.04 0.92 0.73 0.55 0.45 0.47 0.50 0.53 0.53 0.43 0.38 0.35 0.33 0.32 0.34 0.30 0.27 0.27 0.28 0.27 0.26 0.25 0.23 0.23 0.24 0.22 0.20 0.18
0.05 0.10 0.07 0.04 0.03 0.02 0.03 0.02 0.02 0.04 0.06 0.09 0.32 0.86 1.09 1.25 1.25 1.10 0.95 0.79 0.68 0.66 0.65 0.63 0.58 0.45 0.37 0.31 0.27 0.24 0.24 0.22 0.20 0.18 0.16 0.16 0.16 0.15 0.14 0.14 0.14 0.13 0.12 0.12
0.04 0.14 0.14 0.12 0.08 0.05 0.04 0.03 0.03 0.03 0.05 0.11 0.33 0.86 1.17 1.28 1.27 1.13 0.99 0.97 1.01 1.04 0.95 0.76 0.61 0.45 0.34 0.28 0.26 0.25 0.21 0.19 0.16 0.13 0.12 0.12 0.12 0.11 0.11 0.11 0.11 0.11 0.11 0.10
0.04 0.12 0.21 0.31 0.23 0.11 0.06 0.04 0.04 0.05 0.09 0.19 0.37 0.70 0.95 1.07 1.08 1.10 1.15 1.26 1.29 1.11 0.83 0.62 0.51 0.42 0.35 0.31 0.29 0.24 0.20 0.16 0.12 0.11 0.11 0.12 0.12 0.11 0.11 0.11 0.10 0.09 0.07 0.06
0.06 0.13 0.17 0.19 0.16 0.12 0.10 0.08 0.08 0.09 0.11 0.23 0.44 0.72 1.00 1.14 1.18 1.23 1.38 1.39 1.18 0.97 0.79 0.65 0.56 0.50 0.45 0.38 0.31 0.24 0.21 0.17 0.15 0.13 0.13 0.13 0.12 0.10 0.09 0.08 0.07 0.05 0.04 0.03
0.05 0.15 0.13 0.15 0.16 0.17 0.19 0.18 0.20 0.18 0.22 0.34 0.56 0.83 1.04 1.18 1.28 1.31 1.34 1.31 1.25 1.14 0.99 0.82 0.69 0.60 0.53 0.44 0.36 0.31 0.28 0.24 0.19 0.16 0.14 0.13 0.11 0.09 0.08 0.06 0.05 0.04 0.04 0.03
0.04 0.09 0.13 0.17 0.14 0.20 0.30 0.24 0.21 0.23 0.31 0.44 0.59 0.78 0.85 0.92 1.08 1.22 1.31 1.28 1.24 1.19 1.10 0.97 0.88 0.79 0.68 0.57 0.48 0.42 0.38 0.30 0.23 0.19 0.17 0.16 0.13 0.11 0.09 0.06 0.05 0.04 0.04 0.03
0.04 0.08 0.11 0.14 0.17 0.35 0.38 0.26 0.24 0.27 0.34 0.36 0.41 0.52 0.62 0.68 0.79 0.91 1.00 1.13 1.20 1.16 1.09 1.02 0.92 0.82 0.74 0.63 0.52 0.43 0.34 0.27 0.23 0.22 0.19 0.15 0.13 0.10 0.07 0.05 0.04 0.03 0.04 0.04
0.04 0.08 0.14 0.16 0.23 0.36 0.37 0.25 0.23 0.35 0.43 0.33 0.32 0.35 0.43 0.49 0.57 0.76 0.86 0.97 1.07 1.06 1.00 0.96 0.89 0.83 0.72 0.60 0.47 0.35 0.29 0.26 0.25 0.21 0.15 0.10 0.09 0.08 0.05 0.04 0.04 0.04 0.05 0.05
0.03 0.06 0.15 0.23 0.32 0.40 0.41 0.21 0.14 0.31 0.62 0.49 0.39 0.40 0.50 0.61 0.67 0.64 0.57 0.60 0.72 0.85 0.91 0.89 0.81 0.70 0.59 0.46 0.32 0.25 0.22 0.19 0.16 0.12 0.08 0.06 0.06 0.05 0.04 0.04 0.04 0.05 0.05 0.06
0.11 0.13 0.17 0.25 0.39 0.45 0.23 0.15 0.24 0.49 0.67 0.65 0.58 0.58 0.66 0.77 0.77 0.61 0.50 0.51 0.57 0.69 0.76 0.71 0.60 0.50 0.39 0.28 0.21 0.18 0.14 0.10 0.07 0.06 0.05 0.06 0.05 0.04 0.04 0.04 0.06 0.07 0.07 0.10
0.14 0.22 0.25 0.32 0.45 0.48 0.18 0.16 0.33 0.45 0.44 0.50 0.48 0.44 0.45 0.44 0.44 0.46 0.47 0.49 0.54 0.60 0.60 0.54 0.44 0.34 0.25 0.20 0.18 0.16 0.12 0.07 0.05 0.05 0.06 0.06 0.04 0.02 0.02 0.06 0.08 0.08 0.11 0.12
0.06 0.12 0.24 0.37 0.44 0.37 0.21 0.19 0.22 0.29 0.37 0.38 0.35 0.31 0.32 0.35 0.39 0.38 0.39 0.43 0.48 0.47 0.43 0.35 0.25 0.21 0.18 0.17 0.16 0.14 0.11 0.06 0.06 0.09 0.09 0.07 0.05 0.03 0.03 0.05 0.08 0.09 0.11 0.11
0.06 0.05 0.12 0.23 0.27 0.26 0.24 0.24 0.21 0.20 0.24 0.24 0.24 0.25 0.30 0.36 0.35 0.30 0.29 0.30 0.31 0.29 0.23 0.21 0.19 0.17 0.14 0.12 0.10 0.09 0.07 0.07 0.10 0.13 0.12 0.10 0.09 0.05 0.04 0.05 0.04 0.07 0.08 0.08
0.10 0.20 0.28 0.28 0.31 0.35 0.34 0.29 0.24 0.21 0.18 0.17 0.20 0.22 0.23 0.24 0.24 0.21 0.20 0.19 0.17 0.16 0.15 0.14 0.13 0.10 0.08 0.05 0.03 0.03 0.03 0.05 0.10 0.12 0.11 0.09 0.06 0.05 0.07 0.07 0.03 0.03 0.04 0.02
0.08 0.33 0.69 0.48 0.40 0.51 0.45 0.34 0.30 0.28 0.25 0.24 0.19 0.17 0.18 0.17 0.14 0.11 0.11 0.11 0.11 0.10 0.08 0.06 0.05 0.04 0.03 0.02 0.02 0.02 0.01 0.02 0.05 0.08 0.08 0.07 0.05 0.05 0.07 0.10 0.10 0.03 0.01 0.00